[[{"header":{"parameterUnit":"m.s-1","parameterCategory":2,"la1":30.2992,"la2":30.254,"lo1":-89.0895,"lo2":-89.0443,"dy":0.0025,"dx":0.0025,"nx":19,"ny":19,"refTime":"2026-04-02T09:00:00:Z","depth":"0","parameterNumber":2,"parameterNumberName":"U-component_of_CURRENTS"},"data":[0,0,0,0.2731,0.2734,0.2855,0.2856,0.2928,0.2928,0,0,0,0,0,0,0,0,0,0,0,0.2685,0.2686,0.2731,0.2735,0.2855,0.2856,0.2928,0.2928,0,0,0,0,0,0,0,0,0,0,0,0.2684,0.2685,0.2687,0.2735,0.2855,0.2856,0.2927,0.2853,0,0,0,0,0,0,0,0,0,0,0.2745,0.2711,0.2685,0.2687,0.2736,0.2855,0.2856,0.2851,0.2858,0.2854,0,0.2885,0,0.2916,0.2932,0.2933,0,0,0,0.2721,0.2705,0.2749,0.2687,0.2737,0.2855,0.2797,0.2855,0.2864,0.2863,0.2886,0.289,0.2917,0.2933,0.2933,0.2964,0.2964,0,0,0.2714,0.2692,0.2744,0.2755,0.2784,0.2793,0.2801,0.2861,0.2867,0.2887,0.2892,0.2918,0.2933,0.2934,0.2964,0.2964,0,0,0,0.2704,0.2687,0.2731,0.2751,0.2785,0.2797,0.2806,0.2864,0.2883,0.2893,0.2919,0.2934,0.2934,0.2964,0.2964,0.2953,0,0,0,0.27,0.2683,0.2728,0.2713,0.2784,0.2836,0.2807,0.2879,0.2887,0.2919,0.2934,0.2935,0.2965,0.2964,0.2953,0.2934,0,0,0,0.2676,0.268,0.2701,0.2712,0.2773,0.2836,0.2858,0.2881,0.2903,0.2933,0.2935,0.2965,0.2964,0.2954,0.2935,0.2985,0,0,0,0.2637,0.2683,0.2701,0.2763,0.2772,0.2857,0.2858,0.2914,0.2942,0.2934,0.2964,0.2964,0.2954,0.2936,0.2985,0.299,0.2991,0,0,0.2674,0.2687,0.2726,0.2746,0.2826,0.2839,0.288,0.2914,0.2929,0.2937,0.2939,0.2953,0.2936,0.2985,0.2972,0.2974,0,0,0,0.2724,0.2752,0.2782,0.2834,0.2887,0.2881,0.2929,0.2926,0.2935,0.2949,0.295,0.2939,0.2971,0.2974,0.2975,0.2994,0.2963,0.2963,0.2963,0.2721,0.2767,0.2807,0.2857,0.2887,0.2917,0.2914,0.291,0.2943,0.2934,0.2928,0.2951,0.2951,0.2953,0.2971,0.2934,0.2934,0.2934,0.2934,0.2747,0.2749,0.2785,0.2833,0.2829,0.2847,0.2863,0.2881,0.291,0.2904,0.2938,0.2957,0.2954,0.2973,0.2933,0.2933,0.2933,0.2933,0.2933,0.2709,0.2702,0.2739,0.2751,0.2737,0.276,0.2767,0.2825,0.2885,0.2911,0.297,0.297,0.2992,0.2958,0.2959,0.2959,0.2959,0.2959,0.2959,0.2617,0.2653,0.2628,0.2653,0.2622,0.2638,0.2721,0.2786,0.2902,0.295,0.2951,0.2995,0.2959,0.2964,0.2961,0.296,0.296,0.296,0.296,0.2555,0.2549,0.2503,0.2476,0.2442,0.2425,0.2574,0.2748,0.2859,0.2921,0.3021,0.2987,0.3,0.2999,0.3005,0.3013,0.3013,0.3013,0.3013,0.2468,0.2481,0.236,0.228,0.2245,0.2305,0.236,0.2563,0.2853,0.2973,0.3053,0.3038,0.3036,0.305,0.3047,0.3055,0.3075,0.3075,0.3075,0.2402,0.2371,0.2248,0.2185,0.2128,0.2177,0.2192,0.2351,0.2809,0.3079,0.3079,0.3076,0.3056,0.305,0.3072,0.3067,0.3078,0,0]},{"header":{"parameterUnit":"m.s-1","parameterCategory":2,"la1":30.2992,"la2":30.254,"lo1":-89.0895,"lo2":-89.0443,"dy":0.0025,"dx":0.0025,"nx":19,"ny":19,"refTime":"2026-04-02T09:00:00:Z","depth":"0","parameterNumber":3,"parameterNumberName":"V-component_of_CURRENTS"},"data":[0,0,0,0.0069,0.0068,0.0012,0.0011,-0.0108,-0.0109,0,0,0,0,0,0,0,0,0,0,0,0.0089,0.0089,0.0069,0.0068,0.0012,0.0011,-0.0107,-0.0109,0,0,0,0,0,0,0,0,0,0,0,0.0089,0.0089,0.0089,0.0068,0.0012,0.0011,-0.0107,-0.0056,0,0,0,0,0,0,0,0,0,0,0.0003,0.0036,0.0089,0.0089,0.0068,0.0012,0.0011,-0.0053,-0.0059,-0.0091,0,-0.009,0,-0.0098,-0.0116,-0.0117,0,0,0,0.0055,0.0041,0.0026,0.0089,0.0067,0.0012,0.0033,-0.0056,-0.0063,-0.0099,-0.0091,-0.0095,-0.01,-0.0117,-0.0118,-0.0134,-0.0133,0,0,0.0058,0.0074,0.0031,0.0022,0.0064,0.0035,0.0032,-0.006,-0.0063,-0.0092,-0.0098,-0.0102,-0.0118,-0.0119,-0.0135,-0.0134,0,0,0,0.0076,0.0076,0.0064,0.0027,0.0022,0.0034,0.003,-0.0059,-0.0063,-0.0099,-0.0103,-0.0119,-0.012,-0.0135,-0.0134,-0.0017,0,0,0,0.0077,0.0087,0.0065,0.0073,0.0025,-0.0012,0.0033,-0.0057,-0.0067,-0.0103,-0.0119,-0.0121,-0.0136,-0.0135,-0.0022,0.0039,0,0,0,0.009,0.0088,0.0086,0.0074,0.0056,-0.0011,-0.002,-0.0059,-0.0069,-0.0117,-0.0121,-0.0137,-0.0135,-0.0026,0.0031,0.0069,0,0,0,0.0101,0.0135,0.0087,0.0125,0.0057,0.0071,-0.002,-0.0031,-0.0061,-0.0119,-0.0136,-0.0134,-0.0028,0.0026,0.0064,0.0142,0.0169,0,0,0.0158,0.0142,0.0168,0.0125,0.0174,0.0077,0.0111,0.0023,-0.0049,-0.0114,-0.0114,-0.0021,0.003,0.0068,0.0237,0.0262,0,0,0,0.0197,0.0221,0.0226,0.0239,0.0218,0.0201,0.0117,0.0075,0.002,-0.0058,-0.002,0.0009,0.0028,0.0066,0.0086,-0.0014,-0.0127,-0.0127,-0.0127,0.0295,0.0293,0.035,0.0346,0.0341,0.0283,0.026,0.0184,0.0101,0.0099,0.0105,0.0216,0.0259,0.0274,0.0171,0.0099,0.0099,0.01,0.01,0.0414,0.0452,0.0443,0.0492,0.0457,0.0459,0.0381,0.0324,0.0291,0.0212,0.0224,0.0189,0.0303,0.0185,0.0107,0.0106,0.0105,0.0104,0.0104,0.0491,0.0508,0.053,0.0585,0.0601,0.0551,0.0585,0.0506,0.0404,0.0423,0.0423,0.0421,0.0314,0.0421,0.0422,0.0422,0.0422,0.0423,0.0423,0.0548,0.0577,0.0634,0.0676,0.0694,0.073,0.0698,0.0692,0.0639,0.0566,0.0566,0.0355,0.0313,0.0296,0.043,0.0429,0.0428,0.0427,0.0427,0.0643,0.0641,0.0725,0.0761,0.0834,0.0931,0.0906,0.0927,0.088,0.0874,0.0594,0.0623,0.0587,0.057,0.0559,0.0753,0.0753,0.0753,0.0753,0.069,0.0704,0.0796,0.0864,0.0958,0.102,0.1167,0.1162,0.0942,0.0803,0.0671,0.0606,0.0597,0.0554,0.0538,0.0522,0.0702,0.0702,0.0702,0.0751,0.0765,0.0836,0.0903,0.1,0.1142,0.1296,0.1371,0.1013,0.0683,0.052,0.0522,0.0403,0.0397,0.0304,0.029,0.0254,0,0]}],[{"header":{"parameterUnit":"m.s-1","parameterCategory":2,"la1":30.2992,"la2":30.254,"lo1":-89.0895,"lo2":-89.0443,"dy":0.0025,"dx":0.0025,"nx":19,"ny":19,"refTime":"2026-04-02T09:00:00:Z","depth":"2","parameterNumber":2,"parameterNumberName":"U-component_of_CURRENTS"},"data":[0,0,0,0.2603,0.2606,0.2727,0.2728,0.2755,0.2755,0,0,0,0,0,0,0,0,0,0,0,0.2548,0.2549,0.2602,0.2606,0.2727,0.2728,0.2755,0.2755,0,0,0,0,0,0,0,0,0,0,0,0.2548,0.2549,0.255,0.2607,0.2727,0.2728,0.2755,0.2691,0,0,0,0,0,0,0,0,0,0,0.2587,0.2572,0.2549,0.255,0.2608,0.2727,0.2728,0.2689,0.2695,0.267,0,0.27,0,0.274,0.2756,0.2756,0,0,0,0.2587,0.2568,0.2596,0.2551,0.2609,0.2727,0.2667,0.2693,0.2699,0.2677,0.2701,0.2703,0.2741,0.2756,0.2756,0.2807,0.2807,0,0,0.258,0.257,0.2592,0.2601,0.2653,0.2664,0.2671,0.2698,0.271,0.2701,0.2705,0.2741,0.2756,0.2756,0.2806,0.2807,0,0,0,0.2574,0.2565,0.2595,0.2598,0.2637,0.2668,0.2676,0.2708,0.2718,0.2706,0.2741,0.2756,0.2756,0.2806,0.2807,0.2811,0,0,0,0.2569,0.2563,0.2592,0.2587,0.2638,0.2696,0.2686,0.2716,0.2721,0.2741,0.2756,0.2756,0.2805,0.2806,0.2809,0.2787,0,0,0,0.254,0.256,0.2577,0.2586,0.2649,0.2697,0.2709,0.2718,0.2743,0.2756,0.2757,0.2805,0.2806,0.2808,0.2786,0.2837,0,0,0,0.2519,0.2555,0.2577,0.2624,0.2648,0.2717,0.2709,0.2767,0.2785,0.2756,0.2805,0.2806,0.2808,0.2786,0.2836,0.2812,0.2816,0,0,0.2547,0.2558,0.2582,0.2606,0.2672,0.2698,0.2751,0.2777,0.2788,0.2782,0.2785,0.281,0.2786,0.2837,0.2878,0.2879,0,0,0,0.2579,0.2599,0.2621,0.2671,0.2718,0.2743,0.2794,0.2802,0.2827,0.281,0.2832,0.2817,0.2849,0.2833,0.2835,0.2812,0.2812,0.2812,0.2812,0.2583,0.2614,0.2648,0.2691,0.2727,0.2789,0.2805,0.2825,0.2843,0.2865,0.2838,0.2898,0.2881,0.2882,0.2871,0.2871,0.2871,0.2871,0.2871,0.2602,0.2598,0.2644,0.2689,0.2716,0.2755,0.2794,0.2824,0.2868,0.286,0.2893,0.2858,0.2884,0.2872,0.2872,0.2872,0.2872,0.2871,0.2871,0.255,0.2551,0.2598,0.264,0.2659,0.2705,0.2731,0.2797,0.2858,0.2886,0.2915,0.2914,0.2893,0.2932,0.2932,0.2932,0.2933,0.2933,0.2933,0.2467,0.2513,0.2521,0.2575,0.2563,0.2605,0.2698,0.2763,0.2868,0.2908,0.2909,0.2919,0.2917,0.2898,0.2935,0.2935,0.2934,0.2934,0.2934,0.2401,0.243,0.2407,0.2408,0.2416,0.2404,0.2558,0.2714,0.2821,0.2869,0.2936,0.2935,0.2934,0.2932,0.2914,0.2953,0.2953,0.2953,0.2953,0.2337,0.2362,0.2299,0.2248,0.2235,0.2294,0.2323,0.2459,0.2676,0.2746,0.2754,0.2712,0.2718,0.2701,0.2705,0.2681,0.2659,0.2658,0.2658,0.2308,0.2281,0.2196,0.2163,0.2127,0.2168,0.2136,0.2134,0.2359,0.2638,0.2624,0.2949,0.291,0.2909,0.2902,0.2901,0.2871,0,0]},{"header":{"parameterUnit":"m.s-1","parameterCategory":2,"la1":30.2992,"la2":30.254,"lo1":-89.0895,"lo2":-89.0443,"dy":0.0025,"dx":0.0025,"nx":19,"ny":19,"refTime":"2026-04-02T09:00:00:Z","depth":"2","parameterNumber":3,"parameterNumberName":"V-component_of_CURRENTS"},"data":[0,0,0,0.0039,0.0038,-0.0012,-0.0012,-0.0095,-0.0095,0,0,0,0,0,0,0,0,0,0,0,0.0056,0.0056,0.0039,0.0038,-0.0012,-0.0012,-0.0094,-0.0095,0,0,0,0,0,0,0,0,0,0,0,0.0056,0.0056,0.0056,0.0038,-0.0012,-0.0012,-0.0094,-0.0055,0,0,0,0,0,0,0,0,0,0,-0.0005,0.0017,0.0056,0.0056,0.0038,-0.0012,-0.0012,-0.0053,-0.0057,-0.0074,0,-0.0073,0,-0.0082,-0.01,-0.01,0,0,0,0.0026,0.0021,0.001,0.0056,0.0037,-0.0012,0.0007,-0.0055,-0.006,-0.008,-0.0075,-0.0078,-0.0083,-0.0101,-0.0101,-0.0117,-0.0117,0,0,0.0029,0.0041,0.0014,0.0008,0.0034,0.0009,0.0006,-0.0058,-0.0061,-0.0075,-0.008,-0.0085,-0.0101,-0.0102,-0.0118,-0.0117,0,0,0,0.0045,0.0043,0.0034,0.0011,0.0006,0.0008,0.0004,-0.0059,-0.006,-0.008,-0.0086,-0.0102,-0.0102,-0.0118,-0.0118,-0.0009,0,0,0,0.0046,0.0053,0.0035,0.0041,0.0007,-0.0024,0.0006,-0.0056,-0.0064,-0.0085,-0.0102,-0.0103,-0.0119,-0.0118,-0.0013,0.0046,0,0,0,0.0057,0.0054,0.0052,0.0042,0.0025,-0.0023,-0.003,-0.0058,-0.0066,-0.01,-0.0103,-0.0119,-0.0118,-0.0016,0.0039,0.0071,0,0,0,0.0064,0.0097,0.0052,0.0088,0.0026,0.0043,-0.003,-0.0036,-0.0057,-0.0102,-0.0119,-0.0118,-0.0018,0.0035,0.0067,0.0133,0.0156,0,0,0.0118,0.0103,0.0127,0.0087,0.0135,0.0048,0.0079,0.0012,-0.0053,-0.0102,-0.0103,-0.0012,0.0039,0.007,0.0183,0.0205,0,0,0,0.0154,0.0175,0.0181,0.0192,0.0177,0.0162,0.0091,0.0053,0.0004,-0.006,-0.0025,0.0003,0.002,0.0051,0.0068,-0.0114,-0.0114,-0.0114,-0.0114,0.0239,0.0239,0.0291,0.0289,0.0287,0.0236,0.0214,0.0144,0.0075,0.0065,0.0082,0.0169,0.0204,0.0217,0.0063,0.0064,0.0064,0.0065,0.0065,0.0347,0.0379,0.0374,0.0423,0.0392,0.0396,0.0322,0.0269,0.0236,0.0165,0.0175,0.0153,0.0243,0.0073,0.0072,0.007,0.007,0.0069,0.0068,0.0402,0.042,0.0448,0.0508,0.0526,0.0482,0.0513,0.0439,0.034,0.0356,0.0352,0.035,0.0237,0.0354,0.0354,0.0354,0.0355,0.0355,0.0355,0.0444,0.0478,0.0542,0.0592,0.0615,0.0652,0.0621,0.0612,0.0554,0.0481,0.0481,0.0266,0.0256,0.0252,0.0362,0.0361,0.036,0.0359,0.0359,0.0522,0.0534,0.0623,0.0667,0.0751,0.0838,0.0814,0.0823,0.0774,0.0761,0.0535,0.0528,0.0495,0.0481,0.0481,0.0643,0.0643,0.0643,0.0643,0.0566,0.0584,0.0696,0.0771,0.0866,0.092,0.1037,0.0998,0.0856,0.0739,0.0735,0.069,0.0677,0.0649,0.063,0.063,0.0832,0.0832,0.0832,0.0632,0.0648,0.0729,0.0806,0.0904,0.1031,0.114,0.1105,0.0897,0.0835,0.0726,0.0664,0.0582,0.0568,0.0506,0.0484,0.0476,0,0]}],[{"header":{"parameterUnit":"m.s-1","parameterCategory":2,"la1":30.2992,"la2":30.254,"lo1":-89.0895,"lo2":-89.0443,"dy":0.0025,"dx":0.0025,"nx":19,"ny":19,"refTime":"2026-04-02T09:00:00:Z","depth":"4","parameterNumber":2,"parameterNumberName":"U-component_of_CURRENTS"},"data":[0,0,0,0.1611,0.1614,0.1789,0.179,0.197,0.1972,0,0,0,0,0,0,0,0,0,0,0,0.1559,0.156,0.1611,0.1615,0.1789,0.179,0.197,0.1972,0,0,0,0,0,0,0,0,0,0,0,0.1558,0.1559,0.1561,0.1615,0.1789,0.179,0.197,0.1853,0,0,0,0,0,0,0,0,0,0,0.169,0.1648,0.1559,0.1561,0.1616,0.1789,0.179,0.1848,0.186,0.1874,0,0.1902,0,0.193,0.1981,0.1982,0,0,0,0.1631,0.1638,0.1675,0.1561,0.1617,0.1788,0.1715,0.1855,0.1869,0.189,0.1905,0.1912,0.1933,0.1982,0.1983,0.2159,0.216,0,0,0.1621,0.1602,0.1665,0.1683,0.1664,0.1709,0.172,0.1864,0.1883,0.1905,0.1916,0.1936,0.1983,0.1984,0.2158,0.2159,0,0,0,0.1582,0.1595,0.163,0.1676,0.1705,0.1714,0.1727,0.1878,0.1887,0.1918,0.1938,0.1984,0.1986,0.2157,0.2158,0.221,0,0,0,0.1577,0.1571,0.1625,0.1617,0.1703,0.1801,0.1737,0.1877,0.1894,0.1937,0.1984,0.1987,0.2156,0.2158,0.2207,0.2192,0,0,0,0.155,0.1568,0.1586,0.1615,0.1682,0.1799,0.1818,0.1882,0.1905,0.1982,0.1988,0.2156,0.2158,0.2204,0.2189,0.224,0,0,0,0.1527,0.1549,0.1587,0.163,0.168,0.1787,0.1818,0.1918,0.1986,0.1985,0.2156,0.2158,0.2203,0.2186,0.2237,0.196,0,0,0,0.1532,0.155,0.1575,0.1611,0.1697,0.1763,0.1887,0.1989,0.2021,0.2106,0.2111,0.2208,0.2188,0.2239,0.2082,0,0,0,0,0.1561,0.1581,0.1614,0.168,0.1762,0.1876,0.1978,0.2033,0.2153,0.2068,0.2235,0.222,0.2251,0.2083,0.2168,0.2168,0.2168,0.2167,0.2167,0.1531,0.1586,0.1647,0.1736,0.1821,0.1971,0.2063,0.2161,0.2195,0.2264,0.2285,0.2381,0.2209,0.2328,0.2328,0.2329,0.2329,0.2329,0.2329,0.1524,0.1554,0.1668,0.1749,0.1886,0.2009,0.2174,0.2234,0.2362,0.2359,0.2388,0.2175,0.2335,0.2334,0.2333,0.2332,0.2332,0.2332,0.2331,0.1474,0.1499,0.1577,0.172,0.1877,0.2046,0.2173,0.2303,0.2389,0.2435,0.2281,0.2416,0.2387,0.2478,0.2478,0.2479,0.2479,0.2479,0.2479,0.1379,0.1458,0.1539,0.1696,0.1805,0.1971,0.2184,0.2255,0.238,0.2289,0.2461,0.2431,0.2426,0.2396,0.2482,0.2482,0.2481,0.2481,0.2481,0.1295,0.1355,0.1457,0.1559,0.1768,0.1851,0.2077,0.2144,0.22,0.2176,0.2216,0.2228,0.2177,0.2179,0.2137,0.215,0.2147,0.2144,0,0.1233,0.127,0.14,0.1513,0.1617,0.1775,0.1782,0.1894,0.1996,0.1928,0.2209,0.2252,0.2259,0.2201,0.2197,0.2146,0,0,0,0.1189,0.1248,0.1307,0.144,0.1533,0.162,0.1774,0.1743,0.1981,0.1947,0.2061,0.2083,0.2331,0.2491,0.2443,0.2437,0.2386,0,0]},{"header":{"parameterUnit":"m.s-1","parameterCategory":2,"la1":30.2992,"la2":30.254,"lo1":-89.0895,"lo2":-89.0443,"dy":0.0025,"dx":0.0025,"nx":19,"ny":19,"refTime":"2026-04-02T09:00:00:Z","depth":"4","parameterNumber":3,"parameterNumberName":"V-component_of_CURRENTS"},"data":[0,0,0,0.0097,0.0097,0.0075,0.0075,0.0015,0.0014,0,0,0,0,0,0,0,0,0,0,0,0.0102,0.0102,0.0097,0.0097,0.0075,0.0075,0.0015,0.0014,0,0,0,0,0,0,0,0,0,0,0,0.0102,0.0102,0.0102,0.0097,0.0075,0.0075,0.0015,0.0037,0,0,0,0,0,0,0,0,0,0,0.0061,0.0074,0.0102,0.0102,0.0097,0.0075,0.0075,0.0038,0.0036,0.0019,0,0.0022,0,0.0022,0.0011,0.0011,0,0,0,0.0086,0.0077,0.0073,0.0102,0.0097,0.0075,0.0082,0.0037,0.0034,0.0016,0.0021,0.0019,0.0021,0.001,0.001,-0.0024,-0.0024,0,0,0.0087,0.0092,0.0075,0.0072,0.0098,0.0083,0.0081,0.0035,0.0033,0.0021,0.0018,0.002,0.001,0.001,-0.0024,-0.0024,0,0,0,0.0098,0.0093,0.0091,0.0074,0.0075,0.0082,0.0081,0.0035,0.0035,0.0017,0.0019,0.001,0.0009,-0.0024,-0.0024,0.0049,0,0,0,0.0098,0.01,0.0092,0.0094,0.0076,0.0059,0.0081,0.0038,0.0033,0.002,0.001,0.0008,-0.0024,-0.0024,0.0047,0.0092,0,0,0,0.0102,0.0101,0.0101,0.0094,0.009,0.006,0.0058,0.0037,0.0035,0.0011,0.0008,-0.0024,-0.0024,0.0045,0.0088,0.0106,0,0,0,0.0103,0.0128,0.0101,0.0131,0.0091,0.0106,0.0058,0.006,0.0046,0.0009,-0.0024,-0.0024,0.0044,0.0085,0.0104,0.0136,0,0,0,0.0141,0.0132,0.0153,0.0129,0.0162,0.0107,0.0123,0.0083,0.0037,-0.0014,-0.0014,0.0047,0.0088,0.0105,0.014,0,0,0,0,0.017,0.0183,0.019,0.0199,0.0193,0.0177,0.0132,0.0103,0.0059,0.003,0.0029,0.0052,0.0061,0.0071,-0.0024,-0.0024,-0.0024,-0.0024,-0.0024,0.0214,0.022,0.0255,0.0256,0.0255,0.0221,0.0202,0.0145,0.01,0.0085,0.0097,0.0143,0.0156,0.0072,0.0072,0.0073,0.0073,0.0073,0.0073,0.0275,0.0295,0.0297,0.0333,0.0311,0.0311,0.0255,0.022,0.0186,0.0138,0.0143,0.013,0.008,0.0079,0.0078,0.0077,0.0076,0.0076,0.0075,0.0301,0.0313,0.0335,0.0376,0.0392,0.0366,0.0391,0.0337,0.0258,0.0266,0.0256,0.0188,0.0197,0.0265,0.0265,0.0266,0.0266,0.0266,0.0266,0.0311,0.0337,0.038,0.0419,0.0448,0.0483,0.0472,0.0457,0.0386,0.0348,0.0291,0.0207,0.0201,0.0207,0.0271,0.027,0.0269,0.0269,0.0268,0.0335,0.0348,0.0417,0.0456,0.0537,0.0567,0.0574,0.0544,0.0526,0.048,0.0375,0.0368,0.0344,0.0334,0.0344,0.045,0.0451,0.0452,0,0.034,0.0354,0.0443,0.0518,0.0594,0.0615,0.0638,0.0619,0.052,0.0508,0.0489,0.0371,0.0365,0.0336,0.0329,0.034,0,0,0,0.0346,0.0377,0.0437,0.0524,0.0609,0.0636,0.0645,0.0625,0.0545,0.054,0.0469,0.0464,0.0381,0.0284,0.023,0.0223,0.0229,0,0]}]]